SIGI

导读

SIGI是美国于北京时间2025年1月14日08:00发射的人造卫星,作为美国航天布局的组成部分,依托航天技术推进太空领域探索。发射后该卫星已进入预定轨道开展相关任务,服务于美国太空战略与航天科研部署,是2025年美国航天发射活动的重要组成部分,进一步巩固了美国在近地轨道空间的部署能力,助力其持续开展空间态势感知等相关研究。

基本信息
目录编号:
62632
目录名称:
SIGI
国际标识:
2025-009Z
轨道中心:
EARTH
卫星名称:
SIGI
卫星全名:
SIGI
卫星状态:
在轨 (已飞行599 天)
发射日期:
2025-01-14 UTC
国别 :
德国 (DE)
星等 :
--
轨道信息
数据来源 国际轨道数据
星历时间: 2026-09-05T04:27:08+0800
11小时前
查看轨道信息
半长轴: 6867.799km
偏心率: 0.000421
轨道倾角: 97.395°
近地点辐角 51.944°
升交点赤经 327.112°
平近点角 308.217°
近地点: 486.77km
远地点: 492.554km
周期: 94.403分钟
每日圈数: 15.253745
详细信息
使用方式:
暂无
2D轨道图
3D轨道图
轨道高度分析图
轨道倾角分析图
轨道综合分析图
查看轨道综合分析图
交会数据列表
事件ID 空间交会对象 最接近时刻(TCA) 交会距离 交会风险概率(CRP) 交会风险指数(CRI) 操作
CDM_260901-213605-955706-263221
SIGI (62632)
2026-09-01T
21:36:51+0000
2.181 km
极远距离
2.235238E-6 低风险 0.42